Location: Boiro
(42.6475°N, 8.8834°W)
Time: 22:03:28
(UTC+01:00)

Vanguard 1 - Pass Details

Date: 07 December 2021
Orbit: 652 x 3830 km, 34.2° (Epoch: 19 January)

Event Time Altitude Azimuth Distance (km) Brightness Sun altitude
Rises 22:05:42 0° 200° (SSW) 6,024 14.2 -44.0°
Reaches altitude 10° 22:09:55 10° 190° (S) 5,436 13.8 -44.7°
Enters shadow 22:15:38 23° 172° (S) 4,930 13.4 -45.8°
Maximum altitude 22:24:24 32° 135° (SE) 4,914 - -47.3°
Drops below altitude 10° 22:42:42 10° 84° (E) 6,933 - -50.6°
Sets 22:48:56 0° 76° (ENE) 7,864 - -51.7°
